Satellite: DO-64
Catalog number: 32789

Epoch time:      12215.75126357
Element set:     379
Inclination:      097.8103 deg
RA of node:       278.6627 deg

Eccentricity: 0.0013367
Arg of perigee: 264.7651 deg
Mean anomaly: 095.2011 deg
Mean motion: 14.86097380 rev/day

Decay rate:      3.584e-05 rev/day^2
Epoch rev:           23079
Checksum:              336

Satellite: CO-66
Catalog number: 32791
Epoch time: 12214.58730570
Element set: 0361

Inclination:      097.7967 deg
RA of node:       274.6197 deg

Eccentricity: 0.0014100
Arg of perigee: 270.9433 deg
Mean anomaly: 089.0214 deg
Mean motion: 14.83545812 rev/day

Decay rate:     +1.245e-05 rev/day^2
Epoch rev:           23047
Checksum:              308

Satellite: RS-30
Catalog number: 32953

Epoch time:      12215.65101180
Element set:      17
Inclination:      082.5010 deg
RA of node:       266.2472 deg

Eccentricity: 0.0018192
Arg of perigee: 202.7122 deg
Mean anomaly: 157.3153 deg
Mean motion: 12.43026128 rev/day

Decay rate:        1.0e-07 rev/day^2
Epoch rev:           19033
Checksum:              230

Satellite: PHARMSAT
Catalog number: 35002

Epoch time:      12215.86735703
Element set:      36
Inclination:      040.4482 deg
RA of node:       124.4247 deg

Eccentricity: 0.0012509
Arg of perigee: 249.8177 deg
Mean anomaly: 110.1157 deg
Mean motion: 16.06275110 rev/day
Decay rate: 5.03214e-03 rev/day^2

Epoch rev:           18177
Checksum:              260

Satellite: METEOR-M
Catalog number: 35865

Epoch time:      12215.66373244
Element set:     647
Inclination:      098.6512 deg
RA of node:       269.1095 deg

Eccentricity: 0.0001722
Arg of perigee: 290.7211 deg
Mean anomaly: 069.3779 deg
Mean motion: 14.21866346 rev/day

Decay rate:       -2.9e-07 rev/day^2
Epoch rev:           14920
Checksum:              308

Satellite: RS-38
Catalog number: 35869

Epoch time:      12215.67795319
Element set:     654
Inclination:      098.6467 deg
RA of node:       269.1116 deg

Eccentricity: 0.0003838
Arg of perigee: 283.0176 deg
Mean anomaly: 077.0579 deg
Mean motion: 14.22080162 rev/day

Decay rate:       -4.0e-08 rev/day^2
Epoch rev:           14922
Checksum:              326

Satellite: JUGNU
Catalog number: 37839

Epoch time:      12215.66855132
Element set:     198
Inclination:      019.9628 deg
RA of node:       076.6356 deg

Eccentricity: 0.0019429
Arg of perigee: 016.1827 deg
Mean anomaly: 343.9190 deg
Mean motion: 14.12070372 rev/day

Decay rate:       6.19e-06 rev/day^2
Epoch rev:            4182
Checksum:              309

Satellite: SRMSAT
Catalog number: 37841

Epoch time:      12215.71556178
Element set:     198
Inclination:      019.9711 deg
RA of node:       082.1471 deg

Eccentricity: 0.0011852
Arg of perigee: 338.9053 deg
Mean anomaly: 021.0881 deg
Mean motion: 14.10152275 rev/day

Decay rate:       2.64e-06 rev/day^2
Epoch rev:            4176
Checksum:              278

Satellite: RAX-2
Catalog number: 37853

Epoch time:      12215.76004671
Element set:     246
Inclination:      101.7106 deg
RA of node:       277.1584 deg

Eccentricity: 0.0246206
Arg of perigee: 218.1782 deg
Mean anomaly: 140.1745 deg
Mean motion: 14.80274703 rev/day

Decay rate:      3.200e-05 rev/day^2
Epoch rev:            4128
Checksum:              268

Satellite: AUBIESAT
Catalog number: 37854
Epoch time: 12214.89154877
Element set: 0255

Inclination:      101.7114 deg
RA of node:       276.1984 deg

Eccentricity: 0.0247238
Arg of perigee: 219.6684 deg
Mean anomaly: 138.6203 deg
Mean motion: 14.80668086 rev/day

Decay rate:     +3.204e-05 rev/day^2
Epoch rev:           04115
Checksum:              312

Satellite: HRBE
Catalog number: 37855
Epoch time: 12214.84226442
Element set: 0250

Inclination:      101.7118 deg
RA of node:       276.0734 deg

Eccentricity: 0.0247949
Arg of perigee: 220.0628 deg
Mean anomaly: 138.2032 deg
Mean motion: 14.80509289 rev/day

Decay rate:     +2.553e-05 rev/day^2
Epoch rev:           04114
Checksum:              280

Satellite: RS-39
Catalog number: 38051

Epoch time:      12215.73803604
Element set:     571
Inclination:      051.6356 deg
RA of node:       297.9020 deg

Eccentricity: 0.0013900
Arg of perigee: 202.6990 deg
Mean anomaly: 301.9069 deg
Mean motion: 15.24957299 rev/day

Decay rate:      9.592e-05 rev/day^2
Epoch rev:            2907
Checksum:              313

Satellite: E-STAR
Catalog number: 38079

Epoch time:      12215.42880991
Element set:     398
Inclination:      069.4890 deg
RA of node:       209.7797 deg

Eccentricity: 0.0732534
Arg of perigee: 189.6248 deg
Mean anomaly: 169.0130 deg
Mean motion: 14.17545081 rev/day

Decay rate:     2.9218e-04 rev/day^2
Epoch rev:            2413
Checksum:              334

Satellite: GOLIAT
Catalog number: 38085

Epoch time:      12215.38235746
Element set:     369
Inclination:      069.4875 deg
RA of node:       210.3122 deg

Eccentricity: 0.0738288
Arg of perigee: 189.9680 deg
Mean anomaly: 168.6087 deg
Mean motion: 14.16519567 rev/day

Decay rate:     2.9524e-04 rev/day^2
Epoch rev:            2411
Checksum:              336

Satellite: HORYU-2
Catalog number: 38340

Epoch time:      12215.45240283
Element set:      77
Inclination:      098.1748 deg
RA of node:       155.2916 deg

Eccentricity: 0.0013075
Arg of perigee: 177.8031 deg
Mean anomaly: 182.3290 deg
Mean motion: 14.70063795 rev/day

Decay rate:       8.25e-06 rev/day^2
Epoch rev:            1127
Checksum:              285

/EX


Via the Keps mailing list courtesy of AMSAT-NA http://amsat.org/mailman/listinfo/keps

The following information is a reminder of your current mailing list subscription:

You are subscribed to the following list:

[RADIOCOMM LIST]

using the following email:

example@example.com

You may automatically unsubscribe from this list at any time by visiting the following URL:

<http://www.aus-city.com/cgi-bin/dada/mail.cgi/u/RADIOCOMM_LIST/example/example.com/>

If the above URL is inoperable, make sure that you have copied the entire address. Some mail readers will wrap a long URL and thus break this automatic unsubscribe mechanism.

You may also change your subscription by visiting this list's main screen:

<http://www.aus-city.com/cgi-bin/dada/mail.cgi/list/RADIOCOMM_LIST>

If you're still having trouble, please contact the list owner at:

<mailto:list.admin@aus-city.com>

The following physical address is associated with this mailing list:

http://www.aus-city.com



<< Previous: orb12215.2l.amsat

| Archive Index |

Next: ANS-218 AMSAT News Service Weekly Bulletins >>

(archive rss , atom rss/atom )

Forward to a Friend




As the final step, please type in the string of letters that you see in the below image into the text box:


(CAPTCHA is case sensitive)

this list's archives:


Radio Comm Report list. Deals with all modes of communications in the 150 KHz to 1300 MHz, including solar and atmospheric conditions.
Subscribe/Unsubscribe on [RADIOCOMM LIST]

* Required